TimeMST,TemperatureF,Dew PointF,Humidity,Sea Level PressureIn,VisibilityMPH,Wind Direction,Wind SpeedMPH,Gust SpeedMPH,PrecipitationIn,Events,Conditions,WindDirDegrees,DateUTC
12:15 AM,23.0,15.8,74,29.95,10.0,Calm,Calm,-,N/A,,Overcast,0,2013-02-11 07:15:00
12:35 AM,21.2,15.8,80,29.95,10.0,Calm,Calm,-,N/A,,Overcast,0,2013-02-11 07:35:00
12:55 AM,21.2,14.0,74,29.95,10.0,Calm,Calm,-,N/A,,Partly Cloudy,0,2013-02-11 07:55:00
1:15 AM,21.2,15.8,80,29.94,10.0,Calm,Calm,-,N/A,,Clear,0,2013-02-11 08:15:00
1:35 AM,19.4,12.2,74,29.94,10.0,Calm,Calm,-,N/A,,Clear,0,2013-02-11 08:35:00
1:55 AM,17.6,12.2,79,29.94,10.0,SE,3.5,-,N/A,,Partly Cloudy,140,2013-02-11 08:55:00
2:15 AM,19.4,12.2,74,29.94,10.0,South,4.6,-,N/A,,Mostly Cloudy,170,2013-02-11 09:15:00
2:35 AM,19.4,12.2,74,29.93,10.0,South,5.8,-,N/A,,Overcast,170,2013-02-11 09:35:00
2:55 AM,17.6,12.2,79,29.93,10.0,SSE,4.6,-,N/A,,Overcast,160,2013-02-11 09:55:00
3:15 AM,17.6,10.4,73,29.93,10.0,SE,5.8,-,N/A,,Mostly Cloudy,140,2013-02-11 10:15:00
3:35 AM,17.6,12.2,79,29.92,10.0,SE,5.8,-,N/A,,Overcast,130,2013-02-11 10:35:00
3:55 AM,17.6,12.2,79,29.92,10.0,SE,5.8,-,N/A,,Mostly Cloudy,130,2013-02-11 10:55:00
4:15 AM,17.6,12.2,79,29.92,10.0,SE,6.9,-,N/A,,Mostly Cloudy,140,2013-02-11 11:15:00
4:55 AM,19.4,12.2,74,29.93,10.0,SE,5.8,-,N/A,,Overcast,130,2013-02-11 11:55:00
5:15 AM,21.2,14.0,74,29.93,10.0,SE,9.2,-,N/A,,Overcast,130,2013-02-11 12:15:00
5:35 AM,21.2,12.2,68,29.93,10.0,SE,10.4,-,N/A,,Overcast,140,2013-02-11 12:35:00
5:55 AM,23.0,12.2,63,29.93,10.0,SSE,5.8,-,N/A,,Overcast,150,2013-02-11 12:55:00
6:15 AM,23.0,12.2,63,29.93,10.0,SE,6.9,-,N/A,,Overcast,130,2013-02-11 13:15:00
6:35 AM,23.0,12.2,63,29.93,10.0,SE,8.1,-,N/A,,Overcast,130,2013-02-11 13:35:00
6:55 AM,23.0,12.2,63,29.94,10.0,ESE,5.8,-,N/A,,Overcast,120,2013-02-11 13:55:00
7:15 AM,23.0,12.2,63,29.95,10.0,SE,6.9,-,N/A,,Overcast,140,2013-02-11 14:15:00
7:35 AM,23.0,14.0,68,29.95,10.0,SE,6.9,-,N/A,,Overcast,140,2013-02-11 14:35:00
7:55 AM,24.8,12.2,59,29.96,10.0,SSE,4.6,-,N/A,,Overcast,160,2013-02-11 14:55:00
8:15 AM,24.8,14.0,64,29.96,10.0,South,5.8,-,N/A,,Overcast,190,2013-02-11 15:15:00
8:35 AM,26.6,15.8,64,29.97,10.0,WSW,4.6,-,N/A,,Overcast,240,2013-02-11 15:35:00
8:55 AM,26.6,15.8,64,29.96,10.0,South,6.9,-,N/A,,Overcast,190,2013-02-11 15:55:00
9:15 AM,28.4,15.8,59,29.97,10.0,SW,8.1,-,N/A,,Overcast,220,2013-02-11 16:15:00
9:35 AM,28.4,15.8,59,29.96,10.0,SW,13.8,-,N/A,,Overcast,220,2013-02-11 16:35:00
9:55 AM,30.2,15.8,55,29.97,10.0,SW,12.7,-,N/A,,Overcast,230,2013-02-11 16:55:00
10:15 AM,30.2,15.8,55,29.97,10.0,SW,13.8,-,N/A,,Overcast,220,2013-02-11 17:15:00
10:35 AM,30.2,15.8,55,29.96,10.0,SW,18.4,21.9,N/A,,Overcast,230,2013-02-11 17:35:00
10:55 AM,32.0,15.8,51,29.96,10.0,SW,20.7,25.3,N/A,,Mostly Cloudy,220,2013-02-11 17:55:00
11:15 AM,32.0,12.2,44,29.95,10.0,SW,18.4,25.3,N/A,,Mostly Cloudy,220,2013-02-11 18:15:00
11:35 AM,32.0,12.2,44,29.94,10.0,SW,21.9,26.5,N/A,,Mostly Cloudy,220,2013-02-11 18:35:00
11:55 AM,32.0,12.2,44,29.94,10.0,SW,16.1,-,N/A,,Overcast,220,2013-02-11 18:55:00
12:15 PM,32.0,14.0,48,29.93,10.0,WSW,17.3,-,N/A,,Overcast,240,2013-02-11 19:15:00
12:35 PM,32.0,12.2,44,29.92,10.0,WSW,16.1,-,N/A,,Overcast,240,2013-02-11 19:35:00
12:55 PM,32.0,12.2,44,29.91,10.0,SW,15.0,19.6,N/A,,Overcast,230,2013-02-11 19:55:00
1:15 PM,32.0,10.4,41,29.91,10.0,SW,16.1,25.3,N/A,,Overcast,220,2013-02-11 20:15:00
1:35 PM,32.0,10.4,41,29.91,10.0,WSW,17.3,28.8,N/A,,Overcast,240,2013-02-11 20:35:00
1:55 PM,32.0,10.4,41,29.90,10.0,SW,23.0,32.2,N/A,,Overcast,230,2013-02-11 20:55:00
2:15 PM,32.0,10.4,41,29.90,10.0,WSW,13.8,25.3,N/A,,Overcast,250,2013-02-11 21:15:00
2:35 PM,30.2,12.2,47,29.90,10.0,WNW,13.8,24.2,N/A,,Overcast,290,2013-02-11 21:35:00
2:55 PM,30.2,17.6,60,29.90,10.0,West,11.5,17.3,N/A,,Overcast,280,2013-02-11 21:55:00
3:55 PM,32.0,8.6,38,29.90,10.0,West,16.1,19.6,N/A,,Overcast,270,2013-02-11 22:55:00
4:15 PM,30.2,12.2,47,29.90,10.0,NW,12.7,17.3,N/A,,Overcast,310,2013-02-11 23:15:00
4:35 PM,30.2,14.0,51,29.91,10.0,WNW,11.5,-,N/A,,Overcast,300,2013-02-11 23:35:00
4:55 PM,28.4,12.2,51,29.91,10.0,NW,13.8,-,N/A,,Overcast,310,2013-02-11 23:55:00
5:15 PM,28.4,15.8,59,29.91,10.0,NW,15.0,-,N/A,,Overcast,310,2013-02-12 00:15:00
5:35 PM,26.6,17.6,69,29.92,10.0,NW,9.2,-,N/A,,Overcast,320,2013-02-12 00:35:00
5:55 PM,26.6,17.6,69,29.94,10.0,North,6.9,-,N/A,,Overcast,360,2013-02-12 00:55:00
6:15 PM,26.6,17.6,69,29.95,10.0,NNE,6.9,-,N/A,,Overcast,20,2013-02-12 01:15:00
6:35 PM,26.6,17.6,69,29.95,10.0,NNE,3.5,-,N/A,,Overcast,30,2013-02-12 01:35:00
6:55 PM,26.6,15.8,64,29.96,10.0,Calm,Calm,-,N/A,,Overcast,0,2013-02-12 01:55:00
7:15 PM,24.8,17.6,74,29.96,3.0,East,3.5,-,N/A,,Overcast,80,2013-02-12 02:15:00
7:35 PM,24.8,19.4,80,29.97,10.0,South,3.5,-,N/A,,Overcast,190,2013-02-12 02:35:00
7:55 PM,24.8,19.4,80,29.97,9.0,SSE,6.9,-,N/A,,Overcast,150,2013-02-12 02:55:00
8:15 PM,24.8,19.4,80,29.97,2.5,SE,8.1,-,N/A,,Overcast,140,2013-02-12 03:15:00
8:35 PM,24.8,19.4,80,29.97,5.0,ESE,8.1,-,N/A,,Overcast,120,2013-02-12 03:35:00
8:55 PM,24.8,19.4,80,29.97,10.0,SE,9.2,-,N/A,,Overcast,130,2013-02-12 03:55:00
9:15 PM,24.8,19.4,80,29.97,10.0,SE,5.8,-,N/A,,Overcast,130,2013-02-12 04:15:00
9:35 PM,24.8,19.4,80,29.97,10.0,ESE,5.8,-,N/A,,Overcast,120,2013-02-12 04:35:00
9:55 PM,23.0,19.4,86,29.98,10.0,South,5.8,-,N/A,,Overcast,180,2013-02-12 04:55:00
10:15 PM,23.0,19.4,86,29.97,9.0,South,6.9,-,N/A,,Mostly Cloudy,170,2013-02-12 05:15:00
10:35 PM,23.0,19.4,86,29.98,3.0,South,5.8,-,N/A,,Overcast,180,2013-02-12 05:35:00
10:55 PM,21.2,19.4,93,29.97,10.0,South,5.8,-,N/A,,Mostly Cloudy,190,2013-02-12 05:55:00
11:15 PM,21.2,19.4,93,29.97,10.0,South,3.5,-,N/A,,Overcast,190,2013-02-12 06:15:00
11:35 PM,21.2,19.4,93,29.97,10.0,South,3.5,-,N/A,,Overcast,190,2013-02-12 06:35:00
11:55 PM,21.2,19.4,93,29.97,6.0,Calm,Calm,-,N/A,,Overcast,0,2013-02-12 06:55:00